Location: Bruderhein
(53.8035°N, 112.9265°W)
Time: 01:50:18
(UTC+00:00)

STRAND 1 - Pass Details

Date: 04 April 2023
Orbit: 767 x 779 km, 98.4° (Epoch: 31 May)

Event Time Altitude Azimuth Distance (km) Brightness Sun altitude
Rises 11:28:59 0° 114° (ESE) 3,248 ? -13.1°
Reaches altitude 10° 11:31:51 10° 98° (E) 2,323 ? -12.7°
Maximum altitude 11:35:26 20° 53° (NE) 1,750 ? -12.3°
Drops below altitude 10° 11:39:01 10° 8° (N) 2,327 ? -11.8°
Sets 11:41:53 0° 352° (N) 3,257 ? -11.4°
